Weather Service Report


344 
ASUS44 KOUN 251110
RWROK 

WEATHER ROUNDUP FOR OKLAHOMA
NATIONAL WEATHER SERVICE NORMAN OK
600 AM CDT WED MAY 25 2016

NOTE: "FAIR" INDICATES FEW OR NO CLOUDS BELOW 12,000 FEET WITH NO
      SIGNIFICANT WEATHER AND/OR OBSTRUCTIONS TO VISIBILITY.

OKZ001>007-009>012-014-015-017-251200-
NORTHWEST OKLAHOMA AND THE PANHANDLE
  
CITY           SKY/WX    TMP DP  RH WIND       PRES   REMARKS
GAGE           CLEAR     70  67  90 S18       29.80R                  
GUYMON         CLEAR     49  39  68 SW6       29.83R                  
ENID/WOODRING  PTCLDY    70  70 100 E13       29.83F                  
$$

OKZ016-021>023-033>039-044-045-251200-
SOUTHWEST OKLAHOMA
  
CITY           SKY/WX    TMP DP  RH WIND       PRES   REMARKS
LAWTON/REGL    CLOUDY    76  72  87 SE12      29.88R                  
LAWTON/FT SILL CLOUDY    75  75 100 S10       29.88R                  
FREDERICK      CLEAR     74  73  97 S15       29.83R FOG              
CLINTON        CLOUDY    73  70  90 S17G25    29.86R                  
HOBART         MOCLDY    74  71  91 S15       29.85R FOG              
ALTUS AFB      CLEAR     72  70  94 SE7       29.85R FOG              
$$

OKZ018>020-024>031-251200-
CENTRAL OKLAHOMA
  
CITY           SKY/WX    TMP DP  RH WIND       PRES   REMARKS
OKLAHOMA CITY  PTCLDY    75  72  90 S17G25    29.87S                  
OKC/WILEY POST CLEAR     76  71  85 S20       29.85F                  
OKC/TINKER AFB CLEAR     74  72  91 S18G24    29.88R                  
STILLWATER     CLOUDY    71  69  93 S13       29.85S                  
GUTHRIE        PTCLDY    74  71  91 S13       29.83F                  
$$

OKZ008-013-054>072-251200-
NORTHEAST OKLAHOMA
  
CITY           SKY/WX    TMP DP  RH WIND       PRES   REMARKS
TULSA          CLOUDY    67  65  93 E12G21    29.91R                  
TULSA/JONES    CLOUDY    68  65  90 SE8       29.91R                  
PONCA CITY     LGT RAIN  67  65  93 E18G25    29.87F                  
BARTLESVILLE   LGT RAIN  63  62  97 NE12      29.97R FOG              
MUSKOGEE       CLOUDY    67  65  93 SE9       29.96R                  
$$

OKZ032-040>043-046>053-073>077-251200-
SOUTH CENTRAL/SOUTHEAST OKLAHOMA
  
CITY           SKY/WX    TMP DP  RH WIND       PRES   REMARKS
ARDMORE/DWNTWN CLOUDY    75  68  78 S8G17     29.93R                  
MCALESTER      CLOUDY    71  68  90 SE8       29.95F                  
$$

  

Return to Home page


Western Regional Climate Center, wrcc@dri.edu